Terminal Aerodrome Forecast
Issued by NWS

Home | Current Version | Previous Version | Graphics & Text | Print | Product List | Glossary On
Versions: 1 2 3 4 5 6 7 8 9 10 11 12 13 14 15 16 17 18 19 20 21
438
FTUS43 KLOT 241120
TAFDPA
TAF
KDPA 241120Z 2412/2512 09007KT P6SM SCT250
     FM241500 13012KT P6SM SCT250
     FM250100 13007KT P6SM SCT150 BKN250=

USA.gov is the U.S. government's official web portal to all federal, state and local government web resources and services.